This is the latest recevied weather packets stored in our database for station/object K1BWE-1. If no packets are shown the sender has not sent any weather packets the latest 10 day(s).
| Time | Temp. | Humidity | Pressure | Rain* | Wind** | Luminosity | Snow |
|---|---|---|---|---|---|---|---|
| 1777731981 | 20° C | 31% | 1016.1 hPa | 0 mm | - | 170 W/m² | - |
| 1777731677 | 19.44° C | 31% | 1016.2 hPa | 0 mm | - | 147 W/m² | - |
| 1777731375 | 19.44° C | 32% | 1016.2 hPa | 0 mm | - | 130 W/m² | - |
| 1777731072 | 19.44° C | 30% | 1016.2 hPa | 0 mm | - | 118 W/m² | - |
| 1777730771 | 19.44° C | 30% | 1016 hPa | 0 mm | - | 122 W/m² | - |
| 1777730467 | 18.33° C | 32% | 1016.1 hPa | 0 mm | - | 126 W/m² | - |
| 1777730163 | 17.22° C | 34% | 1016.2 hPa | 0 mm | - | 122 W/m² | - |
| 1777729860 | 17.22° C | 34% | 1015.9 hPa | 0 mm | - | 71 W/m² | - |
| 1777729556 | 17.22° C | 34% | 1015.9 hPa | 0 mm | - | 39 W/m² | - |
| 1777729253 | 17.78° C | 34% | 1015.9 hPa | 0 mm | - | 46 W/m² | - |
| 1777728950 | 17.22° C | 34% | 1015.9 hPa | 0 mm | - | 40 W/m² | - |
| 1777728647 | 16.67° C | 35% | 1016.1 hPa | 0 mm | - | 39 W/m² | - |
| 1777728344 | 17.22° C | 34% | 1015.6 hPa | 0 mm | - | 30 W/m² | - |
| 1777728041 | 17.22° C | 35% | 1015.9 hPa | 0 mm | - | 29 W/m² | - |
| 1777727738 | 16.67° C | 36% | 1015.8 hPa | 0 mm | - | 26 W/m² | - |
| 1777727434 | 15° C | 38% | 1015.4 hPa | 0 mm | - | 26 W/m² | - |
| 1777727132 | 13.89° C | 39% | 1015.6 hPa | 0 mm | - | 21 W/m² | - |
| 1777726830 | 13.33° C | 40% | 1015.2 hPa | 0 mm | - | 16 W/m² | - |
| 1777726526 | 13.33° C | 40% | 1015.3 hPa | 0 mm | - | 12 W/m² | - |
| 1777725920 | 12.78° C | 40% | 1015.2 hPa | 0 mm | - | 6 W/m² | - |
| 1777725617 | 13.33° C | 39% | 1015.2 hPa | 0 mm | - | 3 W/m² | - |
| 1777725315 | 12.78° C | 40% | 1015.2 hPa | 0 mm | - | 1 W/m² | - |
| 1777725011 | 12.78° C | 40% | 1014.9 hPa | 0 mm | - | 0 W/m² | - |
| 1777724406 | 12.78° C | 40% | 1014.9 hPa | 0 mm | - | 0 W/m² | - |
| 1777723800 | 13.89° C | 39% | 1014.8 hPa | 0 mm | - | 0 W/m² | - |
* Rain latest hour (hover to see other rain measurements)
** Current wind speed in m/s (hover to see current wind gust speed)